This is the latest recevied weather packets stored in our database for station/object W3TMB. If no packets are shown the sender has not sent any weather packets the latest 10 day(s).
| Time | Temp. | Humidity | Pressure | Rain* | Wind** | Luminosity | Snow |
|---|---|---|---|---|---|---|---|
| 1778020034 | 22.78° C | 58% | 1004.5 hPa | 0 mm | - | 56 W/m² | - |
| 1778019730 | 22.78° C | 57% | 1004.5 hPa | 0 mm | - | 62 W/m² | - |
| 1778019428 | 23.33° C | 56% | 1004.6 hPa | 0 mm | - | 75 W/m² | - |
| 1778019124 | 23.33° C | 55% | 1004.5 hPa | 0 mm | - | 114 W/m² | - |
| 1778018821 | 23.89° C | 53% | 1004.7 hPa | 0 mm | - | 102 W/m² | - |
| 1778018519 | 23.89° C | 51% | 1004.4 hPa | 0 mm | - | 48 W/m² | - |
| 1778018216 | 23.89° C | 50% | 1004.3 hPa | 0 mm | - | 26 W/m² | - |
| 1778017914 | 24.44° C | 50% | 1004.4 hPa | 0 mm | - | 26 W/m² | - |
| 1778017612 | 24.44° C | 49% | 1004.3 hPa | 0 mm | - | 24 W/m² | - |
| 1778017309 | 24.44° C | 50% | 1004.2 hPa | 0 mm | - | 35 W/m² | - |
| 1778017006 | 24.44° C | 50% | 1004.2 hPa | 0 mm | - | 46 W/m² | - |
| 1778016703 | 25° C | 51% | 1004 hPa | 0 mm | - | 69 W/m² | - |
| 1778016399 | 25° C | 49% | 1003.9 hPa | 0 mm | - | 125 W/m² | - |
| 1778016097 | 25° C | 49% | 1003.8 hPa | 0 mm | - | 134 W/m² | - |
| 1778015793 | 25° C | 47% | 1003.8 hPa | 0 mm | - | 58 W/m² | - |
| 1778015491 | 25° C | 47% | 1003.7 hPa | 0 mm | - | 73 W/m² | - |
| 1778015187 | 25° C | 47% | 1003.6 hPa | 0 mm | - | 121 W/m² | - |
| 1778014884 | 25° C | 47% | 1003.5 hPa | 0 mm | - | 163 W/m² | - |
| 1778014581 | 25° C | 47% | 1003.6 hPa | 0 mm | - | 124 W/m² | - |
| 1778014280 | 25° C | 50% | 1003.6 hPa | 0 mm | - | 86 W/m² | - |
| 1778013976 | 25° C | 48% | 1003.6 hPa | 0 mm | - | 87 W/m² | - |
| 1778013674 | 25° C | 45% | 1003.4 hPa | 0 mm | - | 150 W/m² | - |
| 1778013370 | 25.56° C | 45% | 1003.8 hPa | 0 mm | - | 217 W/m² | - |
| 1778013068 | 25.56° C | 45% | 1003.7 hPa | 0 mm | - | 330 W/m² | - |
| 1778012763 | 25° C | 46% | 1003.7 hPa | 0 mm | - | 199 W/m² | - |
* Rain latest hour (hover to see other rain measurements)
** Current wind speed in m/s (hover to see current wind gust speed)